Regional Weather Roundup
Issued by NWS Albany, NY

Home | Current Version | Previous Version | Text Only | Print | Product List | Glossary On
Versions: 1 2 3 4 5 6 7 8 9 10 11 12 13 14 15 16 17 18 19 20 21 22 23 24 25 26 27 28
000
ASUS41 KALY 252010
RWRALY

NEW YORK STATE HOURLY WEATHER ROUNDUP
NATIONAL WEATHER SERVICE ALBANY NY
400 PM EDT SUN SEP 25 2016

NOTE: "FAIR" INDICATES FEW OR NO CLOUDS BELOW 12,000 FEET WITH NO
SIGNIFICANT WEATHER AND/OR NO OBSTRUCTIONS TO VISIBILITY.

NYZ032-033-038>043-046>054-057>066-NYZ062>081-082-084-252100-
EAST


CITY           SKY/WX    TMP DP  RH WIND       PRES   REMARKS
ALBANY         MOSUNNY   67  36  31 NW14      30.14F
GLENS FALLS    SUNNY     65  34  31 N10       30.13F
POUGHKEEPSIE   SUNNY     68  28  22 N3        30.12F
NEWBURGH       SUNNY     68  36  30 VRB5      30.15F
MONTGOMERY     SUNNY     69  37  30 CALM      30.13F
WHITE PLAINS   SUNNY     68  31  25 NW8       30.13S
ISLIP          MOSUNNY   68  34  28 NW12      30.11F
NEW YORK CITY  MOSUNNY   70  33  25 N7        30.13F
CENTRAL PARK   SUNNY     68  35  29 VRB5      30.16F
$$

NYZ005>009-017-018-044>046-055-056-252100-
CENTRAL


CITY           SKY/WX    TMP DP  RH WIND       PRES   REMARKS
FULTON         SUNNY     62  40  44 N7G18     30.21F
SYRACUSE       MOSUNNY   63  35  35 W3        30.19F
ROME           SUNNY     63  38  39 N7        30.19F
ELMIRA         SUNNY     68  34  28 NE9       30.17F
BINGHAMTON     SUNNY     61  31  32 NE6       30.18F
MONTICELLO     SUNNY     64  34  32 N8G16     30.17S
$$

NYZ026>034-041>043-087-252100-
NORTH


CITY           SKY/WX    TMP DP  RH WIND       PRES   REMARKS
WATERTOWN      SUNNY     63  36  36 NE6       30.20F
FORT DRUM      NOT AVBL
OGDENSBURG     FAIR      66  38  36 W9        30.19F
MASSENA        SUNNY     63  36  36 NW10      30.19S
SARANAC LAKE   SUNNY     56  33  42 VRB5      30.16S
PLATTSBURGH    SUNNY     63  33  32 N12G18    30.15S
$$

NYZ001>004-010>016-019>021-085-252100-
WEST


CITY           SKY/WX    TMP DP  RH WIND       PRES   REMARKS
NIAGARA FALLS  MOSUNNY   67  43  41 NE8       30.19S
BUFFALO        PTSUNNY   66  39  37 NE8       30.19S
DUNKIRK        SUNNY     66  44  45 NE9       30.18F
JAMESTOWN      SUNNY     64  45  48 E5        30.18F
WELLSVILLE     SUNNY     63  38  39 VRB3      30.20F
ROCHESTER      MOSUNNY   64  42  44 NE9       30.21S
PENN YAN       SUNNY     64  31  28 VRB3      30.21F
$$

             KEY
       WCI = WIND CHILL INDEX
       VSB = VISIBILITY
       HX  = HEAT INDEX
$$




USA.gov is the U.S. government's official web portal to all federal, state and local government web resources and services.